Simultaneous Nadir Overpasses (SNOs) Predictions

Prediction of SNOs near US between AQUA and NPP Satellite Orbit:

Table of predicted SNOs near US for the next 10.0 days since TLE Epoch: 10/5/2013
Index Date (AQUA) Time (AQUA) AQUA Lat,Lon Date (NPP) Time (NPP) NPP Lat,Lon Distance(km) Time Diff (sec)
1 10/07/2013 07:18:57 49.93, -76.04 10/07/2013 07:21:14 50.34, -78.20 161.03 137
2 10/07/2013 08:57:50 49.93,-100.76 10/07/2013 09:02:42 50.45,-103.53 205.51 292
3 10/09/2013 18:17:05 49.95, -80.22 10/09/2013 18:11:33 49.69, -81.84 119.73 332
4 10/09/2013 19:55:58 49.95,-104.94 10/09/2013 19:53:01 49.58,-107.17 164.97 177
5 10/09/2013 21:31:06 36.54,-125.00 10/09/2013 21:30:37 36.03,-127.60 239.66 29
6 10/12/2013 09:23:11 25.29,-113.03 10/12/2013 09:16:18 25.36,-113.44 41.99 413
